Location: Aranbee
(34.0885°N, 118.2342°W)
Time: 05:07:04
(UTC+00:00)

deb Explorer IX - Pass Details

Date: 01 December 2020
Orbit: 536 x 1104 km, 38.8° (Epoch: 17 January)

Event Time Altitude Azimuth Distance (km) Brightness Sun altitude
Rises 04:04:56 0° 290° (WNW) 3,223 ? -41.1°
Reaches altitude 10° 04:07:34 10° 290° (WNW) 2,200 ? -41.7°
Enters shadow 04:07:53 12° 290° (WNW) 2,076 ? -41.7°
